Data supplied by UK-AIR on 22/4/2021
All Data GMT hour ending 
Status: R =Ratified P=Provisional,P*=As supplied
,,Greenock A8 Roadside,,,,,,,,,,,,,,,,,,,,,,,
Date,time,"PM<sub>10</sub> particulate matter (Hourly measured)",status,unit,"Nitric oxide",status,unit,"Nitrogen dioxide",status,unit,"Nitrogen oxides as nitrogen dioxide",status,unit,"PM<sub>2.5</sub> particulate matter (Hourly measured)",status,unit
 
01-01-2020,01:00,19.020,R,ugm-3 (FIDAS),55.97035,R,ugm-3,53.87013,R,ugm-3,139.69013,R,ugm-3,14.432,R,ugm-3 (Ref.eq)
01-01-2020,02:00,23.203,R,ugm-3 (FIDAS),58.11598,R,ugm-3,52.63653,R,ugm-3,141.74646,R,ugm-3,17.724,R,ugm-3 (Ref.eq)
01-01-2020,03:00,23.030,R,ugm-3 (FIDAS),63.58734,R,ugm-3,54.76254,R,ugm-3,152.26177,R,ugm-3,17.901,R,ugm-3 (Ref.eq)
01-01-2020,04:00,23.960,R,ugm-3 (FIDAS),49.90894,R,ugm-3,51.90109,R,ugm-3,128.42706,R,ugm-3,18.262,R,ugm-3 (Ref.eq)
01-01-2020,05:00,20.298,R,ugm-3 (FIDAS),24.39124,R,ugm-3,43.95411,R,ugm-3,81.35349,R,ugm-3,15.995,R,ugm-3 (Ref.eq)
01-01-2020,06:00,18.150,R,ugm-3 (FIDAS),2.75867,R,ugm-3,22.75941,R,ugm-3,26.98931,R,ugm-3,14.293,R,ugm-3 (Ref.eq)
01-01-2020,07:00,14.063,R,ugm-3 (FIDAS),2.71269,R,ugm-3,9.68576,R,ugm-3,13.84517,R,ugm-3,10.130,R,ugm-3 (Ref.eq)
01-01-2020,08:00,12.133,R,ugm-3 (FIDAS),2.52878,R,ugm-3,6.42760,R,ugm-3,10.30501,R,ugm-3,8.508,R,ugm-3 (Ref.eq)
01-01-2020,09:00,13.605,R,ugm-3 (FIDAS),6.75874,R,ugm-3,13.05085,R,ugm-3,23.41410,R,ugm-3,10.714,R,ugm-3 (Ref.eq)
01-01-2020,10:00,16.148,R,ugm-3 (FIDAS),7.74727,R,ugm-3,12.79697,R,ugm-3,24.67594,R,ugm-3,12.793,R,ugm-3 (Ref.eq)
01-01-2020,11:00,16.425,R,ugm-3 (FIDAS),6.20701,R,ugm-3,14.07208,R,ugm-3,23.58936,R,ugm-3,13.476,R,ugm-3 (Ref.eq)
01-01-2020,12:00,17.990,R,ugm-3 (FIDAS),12.98874,R,ugm-3,16.46721,R,ugm-3,36.38299,R,ugm-3,14.910,R,ugm-3 (Ref.eq)
01-01-2020,13:00,18.870,R,ugm-3 (FIDAS),14.04623,R,ugm-3,13.93442,R,ugm-3,35.47167,R,ugm-3,15.597,R,ugm-3 (Ref.eq)
01-01-2020,14:00,18.555,R,ugm-3 (FIDAS),15.93132,R,ugm-3,21.87476,R,ugm-3,46.30244,R,ugm-3,15.285,R,ugm-3 (Ref.eq)
01-01-2020,15:00,16.958,R,ugm-3 (FIDAS),20.75899,R,ugm-3,26.84545,R,ugm-3,58.67546,R,ugm-3,13.486,R,ugm-3 (Ref.eq)
01-01-2020,16:00,15.065,R,ugm-3 (FIDAS),18.87390,R,ugm-3,20.23705,R,ugm-3,49.17663,R,ugm-3,11.859,R,ugm-3 (Ref.eq)
01-01-2020,17:00,19.093,R,ugm-3 (FIDAS),17.14973,R,ugm-3,27.64768,R,ugm-3,53.94357,R,ugm-3,15.767,R,ugm-3 (Ref.eq)
01-01-2020,18:00,14.693,R,ugm-3 (FIDAS),8.98867,R,ugm-3,15.87076,R,ugm-3,29.65319,R,ugm-3,10.769,R,ugm-3 (Ref.eq)
01-01-2020,19:00,13.415,R,ugm-3 (FIDAS),7.03461,R,ugm-3,16.65873,R,ugm-3,27.44497,R,ugm-3,9.959,R,ugm-3 (Ref.eq)
01-01-2020,20:00,14.620,R,ugm-3 (FIDAS),4.09203,R,ugm-3,10.23469,R,ugm-3,16.50905,R,ugm-3,11.222,R,ugm-3 (Ref.eq)
01-01-2020,21:00,16.765,R,ugm-3 (FIDAS),6.09206,R,ugm-3,11.93496,R,ugm-3,21.27599,R,ugm-3,12.465,R,ugm-3 (Ref.eq)
01-01-2020,22:00,22.840,R,ugm-3 (FIDAS),4.59778,R,ugm-3,11.14166,R,ugm-3,18.19150,R,ugm-3,17.361,R,ugm-3 (Ref.eq)
01-01-2020,23:00,17.763,R,ugm-3 (FIDAS),1.90808,R,ugm-3,7.41438,R,ugm-3,10.34006,R,ugm-3,13.821,R,ugm-3 (Ref.eq)
01-01-2020,24:00,14.023,R,ugm-3 (FIDAS),1.24140,R,ugm-3,4.75624,R,ugm-3,6.65970,R,ugm-3,10.358,R,ugm-3 (Ref.eq)
02-01-2020,01:00,11.178,R,ugm-3 (FIDAS),0.89041,R,ugm-3,3.17536,R,ugm-3,4.54064,R,ugm-3,7.251,R,ugm-3 (Ref.eq)
02-01-2020,02:00,12.330,R,ugm-3 (FIDAS),0.87506,R,ugm-3,3.36274,R,ugm-3,4.70448,R,ugm-3,7.193,R,ugm-3 (Ref.eq)
02-01-2020,03:00,13.573,R,ugm-3 (FIDAS),0.55267,R,ugm-3,2.69850,R,ugm-3,3.54591,R,ugm-3,7.740,R,ugm-3 (Ref.eq)
02-01-2020,04:00,14.240,R,ugm-3 (FIDAS),0.18422,R,ugm-3,1.68358,R,ugm-3,1.96605,R,ugm-3,7.909,R,ugm-3 (Ref.eq)
02-01-2020,05:00,16.040,R,ugm-3 (FIDAS),0.13817,R,ugm-3,1.68398,R,ugm-3,1.89583,R,ugm-3,8.130,R,ugm-3 (Ref.eq)
02-01-2020,06:00,14.868,R,ugm-3 (FIDAS),0.64478,R,ugm-3,2.41683,R,ugm-3,3.40548,R,ugm-3,7.690,R,ugm-3 (Ref.eq)
02-01-2020,07:00,17.983,R,ugm-3 (FIDAS),2.67124,R,ugm-3,4.92693,R,ugm-3,9.02276,R,ugm-3,8.126,R,ugm-3 (Ref.eq)
02-01-2020,08:00,15.050,R,ugm-3 (FIDAS),6.60901,R,ugm-3,4.82236,R,ugm-3,14.95602,R,ugm-3,6.966,R,ugm-3 (Ref.eq)
02-01-2020,09:00,11.241,R,ugm-3 (FIDAS),7.50709,R,ugm-3,5.02517,R,ugm-3,16.53588,R,ugm-3,5.418,R,ugm-3 (Ref.eq)
02-01-2020,10:00,9.442,R,ugm-3 (FIDAS),5.57275,R,ugm-3,5.67399,R,ugm-3,14.21875,R,ugm-3,4.530,R,ugm-3 (Ref.eq)
02-01-2020,11:00,12.785,R,ugm-3 (FIDAS),8.31307,R,ugm-3,10.24924,R,ugm-3,22.99576,R,ugm-3,5.656,R,ugm-3 (Ref.eq)
02-01-2020,12:00,12.438,R,ugm-3 (FIDAS),12.82654,R,ugm-3,10.59604,R,ugm-3,30.26312,R,ugm-3,5.171,R,ugm-3 (Ref.eq)
02-01-2020,13:00,6.390,R,ugm-3 (FIDAS),10.84614,R,ugm-3,13.80815,R,ugm-3,30.43866,R,ugm-3,3.388,R,ugm-3 (Ref.eq)
02-01-2020,14:00,5.496,R,ugm-3 (FIDAS),13.74765,R,ugm-3,12.09766,R,ugm-3,33.17709,R,ugm-3,3.028,R,ugm-3 (Ref.eq)
02-01-2020,15:00,8.599,R,ugm-3 (FIDAS),14.73785,R,ugm-3,14.33593,R,ugm-3,36.93365,R,ugm-3,4.571,R,ugm-3 (Ref.eq)
02-01-2020,16:00,7.784,R,ugm-3 (FIDAS),12.45809,R,ugm-3,13.79409,R,ugm-3,32.89623,R,ugm-3,4.448,R,ugm-3 (Ref.eq)
02-01-2020,17:00,8.649,R,ugm-3 (FIDAS),16.07347,R,ugm-3,13.93809,R,ugm-3,38.58373,R,ugm-3,4.458,R,ugm-3 (Ref.eq)
02-01-2020,18:00,7.740,R,ugm-3 (FIDAS),13.74765,R,ugm-3,16.41594,R,ugm-3,37.49538,R,ugm-3,4.105,R,ugm-3 (Ref.eq)
02-01-2020,19:00,7.723,R,ugm-3 (FIDAS),9.87897,R,ugm-3,11.39414,R,ugm-3,26.54167,R,ugm-3,4.217,R,ugm-3 (Ref.eq)
02-01-2020,20:00,5.909,R,ugm-3 (FIDAS),7.46104,R,ugm-3,10.50242,R,ugm-3,21.94252,R,ugm-3,3.369,R,ugm-3 (Ref.eq)
02-01-2020,21:00,2.841,R,ugm-3 (FIDAS),6.51689,R,ugm-3,6.43813,R,ugm-3,16.43056,R,ugm-3,1.580,R,ugm-3 (Ref.eq)
02-01-2020,22:00,1.993,R,ugm-3 (FIDAS),2.27976,R,ugm-3,8.47625,R,ugm-3,11.97184,R,ugm-3,1.054,R,ugm-3 (Ref.eq)
02-01-2020,23:00,10.752,R,ugm-3 (FIDAS),1.47379,R,ugm-3,5.28846,R,ugm-3,7.54823,R,ugm-3,5.693,R,ugm-3 (Ref.eq)
02-01-2020,24:00,16.430,R,ugm-3 (FIDAS),0.69084,R,ugm-3,3.29413,R,ugm-3,4.35340,R,ugm-3,8.691,R,ugm-3 (Ref.eq)
03-01-2020,01:00,16.773,R,ugm-3 (FIDAS),2.02988,R,ugm-3,4.81140,R,ugm-3,7.92385,R,ugm-3,8.628,R,ugm-3 (Ref.eq)
03-01-2020,02:00,15.173,R,ugm-3 (FIDAS),2.81416,R,ugm-3,5.84771,R,ugm-3,10.16269,R,ugm-3,7.512,R,ugm-3 (Ref.eq)
03-01-2020,03:00,13.145,R,ugm-3 (FIDAS),0.96881,R,ugm-3,5.05521,R,ugm-3,6.54069,R,ugm-3,6.946,R,ugm-3 (Ref.eq)
03-01-2020,04:00,13.713,R,ugm-3 (FIDAS),0.25374,R,ugm-3,5.79999,R,ugm-3,6.18904,R,ugm-3,7.249,R,ugm-3 (Ref.eq)
03-01-2020,05:00,9.675,R,ugm-3 (FIDAS),0.29987,R,ugm-3,4.21715,R,ugm-3,4.67695,R,ugm-3,5.296,R,ugm-3 (Ref.eq)
03-01-2020,06:00,10.670,R,ugm-3 (FIDAS),2.81416,R,ugm-3,6.97299,R,ugm-3,11.28797,R,ugm-3,5.274,R,ugm-3 (Ref.eq)
03-01-2020,07:00,11.910,R,ugm-3 (FIDAS),3.64456,R,ugm-3,9.04039,R,ugm-3,14.62865,R,ugm-3,5.918,R,ugm-3 (Ref.eq)
03-01-2020,08:00,12.540,R,ugm-3 (FIDAS),13.67865,R,ugm-3,29.41782,R,ugm-3,50.39146,R,ugm-3,6.289,R,ugm-3 (Ref.eq)
03-01-2020,09:00,14.683,R,ugm-3 (FIDAS),26.43463,R,ugm-3,37.92061,R,ugm-3,78.45314,R,ugm-3,7.097,R,ugm-3 (Ref.eq)
03-01-2020,10:00,16.725,R,ugm-3 (FIDAS),12.24851,R,ugm-3,24.15570,R,ugm-3,42.93648,R,ugm-3,9.228,R,ugm-3 (Ref.eq)
03-01-2020,11:00,13.665,R,ugm-3 (FIDAS),12.96358,R,ugm-3,18.45265,R,ugm-3,38.32986,R,ugm-3,5.773,R,ugm-3 (Ref.eq)
03-01-2020,12:00,9.551,R,ugm-3 (FIDAS),10.12635,R,ugm-3,14.82055,R,ugm-3,30.34741,R,ugm-3,4.313,R,ugm-3 (Ref.eq)
03-01-2020,13:00,12.053,R,ugm-3 (FIDAS),12.89438,R,ugm-3,11.91257,R,ugm-3,31.68367,R,ugm-3,5.459,R,ugm-3 (Ref.eq)
03-01-2020,14:00,13.458,R,ugm-3 (FIDAS),13.54025,R,ugm-3,21.71791,R,ugm-3,42.47933,R,ugm-3,6.626,R,ugm-3 (Ref.eq)
03-01-2020,15:00,13.740,R,ugm-3 (FIDAS),13.51718,R,ugm-3,18.83458,R,ugm-3,39.56064,R,ugm-3,6.493,R,ugm-3 (Ref.eq)
03-01-2020,16:00,11.735,R,ugm-3 (FIDAS),12.73291,R,ugm-3,16.48545,R,ugm-3,36.00897,R,ugm-3,5.738,R,ugm-3 (Ref.eq)
03-01-2020,17:00,12.565,R,ugm-3 (FIDAS),13.90932,R,ugm-3,15.94759,R,ugm-3,37.27491,R,ugm-3,6.363,R,ugm-3 (Ref.eq)
03-01-2020,18:00,14.018,R,ugm-3 (FIDAS),12.45611,R,ugm-3,18.31648,R,ugm-3,37.41557,R,ugm-3,7.208,R,ugm-3 (Ref.eq)
03-01-2020,19:00,12.601,R,ugm-3 (FIDAS),6.43566,R,ugm-3,10.45751,R,ugm-3,20.32538,R,ugm-3,6.824,R,ugm-3 (Ref.eq)
03-01-2020,20:00,7.789,R,ugm-3 (FIDAS),4.15204,R,ugm-3,10.47768,R,ugm-3,16.84404,R,ugm-3,4.510,R,ugm-3 (Ref.eq)
03-01-2020,21:00,7.965,R,ugm-3 (FIDAS),2.26055,R,ugm-3,6.27458,R,ugm-3,9.74071,R,ugm-3,4.328,R,ugm-3 (Ref.eq)
03-01-2020,22:00,9.950,R,ugm-3 (FIDAS),2.02988,R,ugm-3,4.90518,R,ugm-3,8.01762,R,ugm-3,5.401,R,ugm-3 (Ref.eq)
03-01-2020,23:00,8.740,R,ugm-3 (FIDAS),1.03801,R,ugm-3,4.06998,R,ugm-3,5.66157,R,ugm-3,4.861,R,ugm-3 (Ref.eq)
03-01-2020,24:00,12.915,R,ugm-3 (FIDAS),1.03801,R,ugm-3,3.68316,R,ugm-3,5.27475,R,ugm-3,6.871,R,ugm-3 (Ref.eq)
04-01-2020,01:00,13.043,R,ugm-3 (FIDAS),0.49292,R,ugm-3,3.09513,R,ugm-3,3.85094,R,ugm-3,6.662,R,ugm-3 (Ref.eq)
04-01-2020,02:00,8.094,R,ugm-3 (FIDAS),0.80100,R,ugm-3,2.62275,R,ugm-3,3.85094,R,ugm-3,4.673,R,ugm-3 (Ref.eq)
04-01-2020,03:00,8.017,R,ugm-3 (FIDAS),0.57765,R,ugm-3,2.00249,R,ugm-3,2.88820,R,ugm-3,4.680,R,ugm-3 (Ref.eq)
04-01-2020,04:00,7.842,R,ugm-3 (FIDAS),0.36969,R,ugm-3,1.22947,R,ugm-3,1.79632,R,ugm-3,4.272,R,ugm-3 (Ref.eq)
04-01-2020,05:00,7.162,R,ugm-3 (FIDAS),0.73939,R,ugm-3,1.89538,R,ugm-3,3.02909,R,ugm-3,4.082,R,ugm-3 (Ref.eq)
04-01-2020,06:00,6.883,R,ugm-3 (FIDAS),1.13219,R,ugm-3,2.20887,R,ugm-3,3.94486,R,ugm-3,3.954,R,ugm-3 (Ref.eq)
04-01-2020,07:00,6.015,R,ugm-3 (FIDAS),2.51854,R,ugm-3,4.59158,R,ugm-3,8.45328,R,ugm-3,3.286,R,ugm-3 (Ref.eq)
04-01-2020,08:00,8.201,R,ugm-3 (FIDAS),5.61472,R,ugm-3,8.72011,R,ugm-3,17.32922,R,ugm-3,4.253,R,ugm-3 (Ref.eq)
04-01-2020,09:00,7.555,R,ugm-3 (FIDAS),10.44384,R,ugm-3,11.77649,R,ugm-3,27.79015,R,ugm-3,4.304,R,ugm-3 (Ref.eq)
04-01-2020,10:00,9.381,R,ugm-3 (FIDAS),16.28962,R,ugm-3,16.23267,R,ugm-3,41.20973,R,ugm-3,4.539,R,ugm-3 (Ref.eq)
04-01-2020,11:00,4.803,R,ugm-3 (FIDAS),19.70928,R,ugm-3,18.03365,R,ugm-3,48.25413,R,ugm-3,2.681,R,ugm-3 (Ref.eq)
04-01-2020,12:00,5.046,R,ugm-3 (FIDAS),25.37021,R,ugm-3,27.49301,R,ugm-3,66.39345,R,ugm-3,2.584,R,ugm-3 (Ref.eq)
04-01-2020,13:00,4.123,R,ugm-3 (FIDAS),20.98010,R,ugm-3,19.74818,R,ugm-3,51.91721,R,ugm-3,2.127,R,ugm-3 (Ref.eq)
04-01-2020,14:00,5.985,R,ugm-3 (FIDAS),23.19826,R,ugm-3,25.53998,R,ugm-3,61.11015,R,ugm-3,3.190,R,ugm-3 (Ref.eq)
04-01-2020,15:00,6.738,R,ugm-3 (FIDAS),19.54754,R,ugm-3,21.90952,R,ugm-3,51.88199,R,ugm-3,3.471,R,ugm-3 (Ref.eq)
04-01-2020,16:00,8.959,R,ugm-3 (FIDAS),22.48198,R,ugm-3,19.55864,R,ugm-3,54.03053,R,ugm-3,4.403,R,ugm-3 (Ref.eq)
04-01-2020,17:00,7.423,R,ugm-3 (FIDAS),22.64372,R,ugm-3,15.26012,R,ugm-3,49.98000,R,ugm-3,3.569,R,ugm-3 (Ref.eq)
04-01-2020,18:00,4.673,R,ugm-3 (FIDAS),19.08542,R,ugm-3,14.76358,R,ugm-3,44.02749,R,ugm-3,2.612,R,ugm-3 (Ref.eq)
04-01-2020,19:00,3.874,R,ugm-3 (FIDAS),16.47446,R,ugm-3,15.66746,R,ugm-3,40.92795,R,ugm-3,2.351,R,ugm-3 (Ref.eq)
04-01-2020,20:00,4.331,R,ugm-3 (FIDAS),13.86350,R,ugm-3,16.28957,R,ugm-3,37.54664,R,ugm-3,2.547,R,ugm-3 (Ref.eq)
04-01-2020,21:00,3.950,R,ugm-3 (FIDAS),8.45674,R,ugm-3,11.65336,R,ugm-3,24.62017,R,ugm-3,2.700,R,ugm-3 (Ref.eq)
04-01-2020,22:00,3.653,R,ugm-3 (FIDAS),7.27834,R,ugm-3,9.26879,R,ugm-3,20.42876,R,ugm-3,2.961,R,ugm-3 (Ref.eq)
04-01-2020,23:00,6.708,R,ugm-3 (FIDAS),7.37076,R,ugm-3,11.34606,R,ugm-3,22.64774,R,ugm-3,5.105,R,ugm-3 (Ref.eq)
04-01-2020,24:00,7.444,R,ugm-3 (FIDAS),8.98817,R,ugm-3,9.92273,R,ugm-3,23.70440,R,ugm-3,5.500,R,ugm-3 (Ref.eq)
05-01-2020,01:00,7.303,R,ugm-3 (FIDAS),4.62896,R,ugm-3,9.69515,R,ugm-3,16.79279,R,ugm-3,5.288,R,ugm-3 (Ref.eq)
05-01-2020,02:00,5.205,R,ugm-3 (FIDAS),4.18921,R,ugm-3,7.51183,R,ugm-3,13.93519,R,ugm-3,3.780,R,ugm-3 (Ref.eq)
05-01-2020,03:00,4.160,R,ugm-3 (FIDAS),4.44380,R,ugm-3,4.72249,R,ugm-3,11.53622,R,ugm-3,2.766,R,ugm-3 (Ref.eq)
05-01-2020,04:00,6.144,R,ugm-3 (FIDAS),3.88833,R,ugm-3,4.37472,R,ugm-3,10.33674,R,ugm-3,4.309,R,ugm-3 (Ref.eq)
05-01-2020,05:00,3.114,R,ugm-3 (FIDAS),0.71749,R,ugm-3,2.99223,R,ugm-3,4.09236,R,ugm-3,1.745,R,ugm-3 (Ref.eq)
05-01-2020,06:00,2.277,R,ugm-3 (FIDAS),1.71272,R,ugm-3,4.92357,R,ugm-3,7.54970,R,ugm-3,1.077,R,ugm-3 (Ref.eq)
05-01-2020,07:00,2.832,R,ugm-3 (FIDAS),2.96254,R,ugm-3,7.48764,R,ugm-3,12.03013,R,ugm-3,1.404,R,ugm-3 (Ref.eq)
05-01-2020,08:00,3.265,R,ugm-3 (FIDAS),12.03530,R,ugm-3,23.35171,R,ugm-3,41.80558,R,ugm-3,1.358,R,ugm-3 (Ref.eq)
05-01-2020,09:00,2.717,R,ugm-3 (FIDAS),4.74469,R,ugm-3,6.51899,R,ugm-3,13.79408,R,ugm-3,1.500,R,ugm-3 (Ref.eq)
05-01-2020,10:00,3.655,R,ugm-3 (FIDAS),11.66499,R,ugm-3,7.72647,R,ugm-3,25.61253,R,ugm-3,2.400,R,ugm-3 (Ref.eq)
05-01-2020,11:00,3.695,R,ugm-3 (FIDAS),11.15580,R,ugm-3,10.65923,R,ugm-3,27.76455,R,ugm-3,2.234,R,ugm-3 (Ref.eq)
05-01-2020,12:00,3.823,R,ugm-3 (FIDAS),11.01693,R,ugm-3,14.36478,R,ugm-3,31.25717,R,ugm-3,2.134,R,ugm-3 (Ref.eq)
05-01-2020,13:00,3.145,R,ugm-3 (FIDAS),17.52062,R,ugm-3,22.45542,R,ugm-3,49.32000,R,ugm-3,1.865,R,ugm-3 (Ref.eq)
05-01-2020,14:00,4.026,R,ugm-3 (FIDAS),23.49198,R,ugm-3,20.81388,R,ugm-3,56.83442,R,ugm-3,2.170,R,ugm-3 (Ref.eq)
05-01-2020,15:00,5.847,R,ugm-3 (FIDAS),24.27891,R,ugm-3,18.33724,R,ugm-3,55.56438,R,ugm-3,2.980,R,ugm-3 (Ref.eq)
05-01-2020,16:00,5.649,R,ugm-3 (FIDAS),22.12644,R,ugm-3,26.82365,R,ugm-3,60.75039,R,ugm-3,3.194,R,ugm-3 (Ref.eq)
05-01-2020,17:00,4.973,R,ugm-3 (FIDAS),16.45596,R,ugm-3,15.33869,R,ugm-3,40.57082,R,ugm-3,3.040,R,ugm-3 (Ref.eq)
05-01-2020,18:00,5.495,R,ugm-3 (FIDAS),13.12311,R,ugm-3,9.12445,R,ugm-3,29.24627,R,ugm-3,3.398,R,ugm-3 (Ref.eq)
05-01-2020,19:00,7.436,R,ugm-3 (FIDAS),13.79431,R,ugm-3,14.93941,R,ugm-3,36.09039,R,ugm-3,4.347,R,ugm-3 (Ref.eq)
05-01-2020,20:00,9.072,R,ugm-3 (FIDAS),9.74397,R,ugm-3,8.62581,R,ugm-3,23.56635,R,ugm-3,5.367,R,ugm-3 (Ref.eq)
05-01-2020,21:00,12.555,R,ugm-3 (FIDAS),6.43426,R,ugm-3,10.70192,R,ugm-3,20.56764,R,ugm-3,7.442,R,ugm-3 (Ref.eq)
05-01-2020,22:00,11.651,R,ugm-3 (FIDAS),5.41589,R,ugm-3,7.81825,R,ugm-3,16.12249,R,ugm-3,6.693,R,ugm-3 (Ref.eq)
05-01-2020,23:00,8.376,R,ugm-3 (FIDAS),1.82844,R,ugm-3,4.25223,R,ugm-3,7.05579,R,ugm-3,5.257,R,ugm-3 (Ref.eq)
05-01-2020,24:00,6.791,R,ugm-3 (FIDAS),0.92579,R,ugm-3,4.75429,R,ugm-3,6.17382,R,ugm-3,4.821,R,ugm-3 (Ref.eq)
06-01-2020,01:00,5.866,R,ugm-3 (FIDAS),0.98918,R,ugm-3,3.80724,R,ugm-3,5.32395,R,ugm-3,3.511,R,ugm-3 (Ref.eq)
06-01-2020,02:00,7.258,R,ugm-3 (FIDAS),1.29829,R,ugm-3,3.16836,R,ugm-3,5.15905,R,ugm-3,3.350,R,ugm-3 (Ref.eq)
06-01-2020,03:00,7.517,R,ugm-3 (FIDAS),0.71870,R,ugm-3,2.71430,R,ugm-3,3.81628,R,ugm-3,3.634,R,ugm-3 (Ref.eq)
06-01-2020,04:00,4.878,R,ugm-3 (FIDAS),0.44049,R,ugm-3,2.36348,R,ugm-3,3.03889,R,ugm-3,2.690,R,ugm-3 (Ref.eq)
06-01-2020,05:00,4.631,R,ugm-3 (FIDAS),1.57650,R,ugm-3,2.24708,R,ugm-3,4.66435,R,ugm-3,2.415,R,ugm-3 (Ref.eq)
06-01-2020,06:00,5.558,R,ugm-3 (FIDAS),1.59968,R,ugm-3,2.95359,R,ugm-3,5.40640,R,ugm-3,2.912,R,ugm-3 (Ref.eq)
06-01-2020,07:00,5.360,R,ugm-3 (FIDAS),8.46981,R,ugm-3,13.39732,R,ugm-3,26.38418,R,ugm-3,2.720,R,ugm-3 (Ref.eq)
06-01-2020,08:00,8.416,R,ugm-3 (FIDAS),19.70622,R,ugm-3,21.05668,R,ugm-3,51.27246,R,ugm-3,4.366,R,ugm-3 (Ref.eq)
06-01-2020,09:00,8.269,R,ugm-3 (FIDAS),9.38943,R,ugm-3,10.16155,R,ugm-3,24.55848,R,ugm-3,4.992,R,ugm-3 (Ref.eq)
06-01-2020,10:00,12.288,R,ugm-3 (FIDAS),7.60428,R,ugm-3,8.26974,R,ugm-3,19.92947,R,ugm-3,7.079,R,ugm-3 (Ref.eq)
06-01-2020,11:00,6.241,R,ugm-3 (FIDAS),11.38324,R,ugm-3,9.64862,R,ugm-3,27.10267,R,ugm-3,3.692,R,ugm-3 (Ref.eq)
06-01-2020,12:00,7.956,R,ugm-3 (FIDAS),17.61968,R,ugm-3,17.08280,R,ugm-3,44.09926,R,ugm-3,4.805,R,ugm-3 (Ref.eq)
06-01-2020,13:00,8.231,R,ugm-3 (FIDAS),22.41872,R,ugm-3,14.77741,R,ugm-3,49.15230,R,ugm-3,5.124,R,ugm-3 (Ref.eq)
06-01-2020,14:00,5.644,R,ugm-3 (FIDAS),18.06017,R,ugm-3,14.64059,R,ugm-3,42.33247,R,ugm-3,2.995,R,ugm-3 (Ref.eq)
06-01-2020,15:00,10.124,R,ugm-3 (FIDAS),18.68613,R,ugm-3,9.68784,R,ugm-3,38.33950,R,ugm-3,5.471,R,ugm-3 (Ref.eq)
06-01-2020,16:00,13.023,R,ugm-3 (FIDAS),22.07096,R,ugm-3,17.57213,R,ugm-3,51.41380,R,ugm-3,7.099,R,ugm-3 (Ref.eq)
06-01-2020,17:00,13.558,R,ugm-3 (FIDAS),26.96274,R,ugm-3,19.04684,R,ugm-3,60.38913,R,ugm-3,7.314,R,ugm-3 (Ref.eq)
06-01-2020,18:00,14.710,R,ugm-3 (FIDAS),19.89169,R,ugm-3,24.65925,R,ugm-3,55.15942,R,ugm-3,7.459,R,ugm-3 (Ref.eq)
06-01-2020,19:00,15.643,R,ugm-3 (FIDAS),13.05247,R,ugm-3,17.47793,R,ugm-3,37.49144,R,ugm-3,8.312,R,ugm-3 (Ref.eq)
06-01-2020,20:00,15.985,R,ugm-3 (FIDAS),7.32608,R,ugm-3,9.96841,R,ugm-3,21.20157,R,ugm-3,8.207,R,ugm-3 (Ref.eq)
06-01-2020,21:00,15.773,R,ugm-3 (FIDAS),5.70321,R,ugm-3,8.25179,R,ugm-3,16.99659,R,ugm-3,8.094,R,ugm-3 (Ref.eq)
06-01-2020,22:00,12.840,R,ugm-3 (FIDAS),4.26582,R,ugm-3,8.12359,R,ugm-3,14.66442,R,ugm-3,6.517,R,ugm-3 (Ref.eq)
06-01-2020,23:00,13.860,R,ugm-3 (FIDAS),6.86240,R,ugm-3,8.38253,R,ugm-3,18.90473,R,ugm-3,8.030,R,ugm-3 (Ref.eq)
06-01-2020,24:00,19.283,R,ugm-3 (FIDAS),4.38174,R,ugm-3,6.10838,R,ugm-3,12.82695,R,ugm-3,9.176,R,ugm-3 (Ref.eq)
07-01-2020,01:00,15.948,R,ugm-3 (FIDAS),2.50806,R,ugm-3,6.34753,R,ugm-3,10.19316,R,ugm-3,7.956,R,ugm-3 (Ref.eq)
07-01-2020,02:00,15.635,R,ugm-3 (FIDAS),4.33492,R,ugm-3,2.17786,R,ugm-3,8.82464,R,ugm-3,8.156,R,ugm-3 (Ref.eq)
07-01-2020,03:00,17.778,R,ugm-3 (FIDAS),3.15830,R,ugm-3,4.85501,R,ugm-3,9.69766,R,ugm-3,8.919,R,ugm-3 (Ref.eq)
07-01-2020,04:00,18.490,R,ugm-3 (FIDAS),2.18294,R,ugm-3,2.28035,R,ugm-3,5.62748,R,ugm-3,9.278,R,ugm-3 (Ref.eq)
07-01-2020,05:00,18.038,R,ugm-3 (FIDAS),2.06683,R,ugm-3,3.52017,R,ugm-3,6.68926,R,ugm-3,9.193,R,ugm-3 (Ref.eq)
07-01-2020,06:00,11.488,R,ugm-3 (FIDAS),4.45877,R,ugm-3,2.75480,R,ugm-3,9.59148,R,ugm-3,7.070,R,ugm-3 (Ref.eq)
07-01-2020,07:00,11.055,R,ugm-3 (FIDAS),7.45451,R,ugm-3,7.85906,R,ugm-3,19.28915,R,ugm-3,7.003,R,ugm-3 (Ref.eq)
07-01-2020,08:00,14.795,R,ugm-3 (FIDAS),21.73650,R,ugm-3,20.00830,R,ugm-3,53.33714,R,ugm-3,8.881,R,ugm-3 (Ref.eq)
07-01-2020,09:00,13.118,R,ugm-3 (FIDAS),17.11517,R,ugm-3,9.78710,R,ugm-3,36.03000,R,ugm-3,7.961,R,ugm-3 (Ref.eq)
07-01-2020,10:00,11.385,R,ugm-3 (FIDAS),11.37915,R,ugm-3,9.41544,R,ugm-3,26.86323,R,ugm-3,7.289,R,ugm-3 (Ref.eq)
07-01-2020,11:00,12.798,R,ugm-3 (FIDAS),14.63034,R,ugm-3,11.54434,R,ugm-3,33.97721,R,ugm-3,7.646,R,ugm-3 (Ref.eq)
07-01-2020,12:00,10.678,R,ugm-3 (FIDAS),16.46494,R,ugm-3,18.39360,R,ugm-3,43.63948,R,ugm-3,6.552,R,ugm-3 (Ref.eq)
07-01-2020,13:00,11.000,R,ugm-3 (FIDAS),19.90191,R,ugm-3,15.28262,R,ugm-3,45.79845,R,ugm-3,6.574,R,ugm-3 (Ref.eq)
07-01-2020,14:00,9.540,R,ugm-3 (FIDAS),14.16588,R,ugm-3,17.77779,R,ugm-3,39.49851,R,ugm-3,5.577,R,ugm-3 (Ref.eq)
07-01-2020,15:00,7.382,R,ugm-3 (FIDAS),18.50854,R,ugm-3,14.37529,R,ugm-3,42.75466,R,ugm-3,4.309,R,ugm-3 (Ref.eq)
07-01-2020,16:00,8.444,R,ugm-3 (FIDAS),27.07774,R,ugm-3,10.43820,R,ugm-3,51.95682,R,ugm-3,4.586,R,ugm-3 (Ref.eq)
07-01-2020,17:00,9.100,R,ugm-3 (FIDAS),21.55072,R,ugm-3,14.73647,R,ugm-3,47.78045,R,ugm-3,4.795,R,ugm-3 (Ref.eq)
07-01-2020,18:00,8.278,R,ugm-3 (FIDAS),14.65356,R,ugm-3,5.38575,R,ugm-3,27.85423,R,ugm-3,4.422,R,ugm-3 (Ref.eq)
07-01-2020,19:00,12.213,R,ugm-3 (FIDAS),9.68389,R,ugm-3,6.88283,R,ugm-3,21.73126,R,ugm-3,7.446,R,ugm-3 (Ref.eq)
07-01-2020,20:00,30.715,R,ugm-3 (FIDAS),5.34123,R,ugm-3,5.79043,R,ugm-3,13.98021,R,ugm-3,18.351,R,ugm-3 (Ref.eq)
07-01-2020,21:00,31.815,R,ugm-3 (FIDAS),4.43555,R,ugm-3,2.08255,R,ugm-3,8.88363,R,ugm-3,19.205,R,ugm-3 (Ref.eq)
07-01-2020,22:00,22.483,R,ugm-3 (FIDAS),2.85640,R,ugm-3,6.48588,R,ugm-3,10.86563,R,ugm-3,14.130,R,ugm-3 (Ref.eq)
07-01-2020,23:00,11.219,R,ugm-3 (FIDAS),1.48626,R,ugm-3,2.92387,R,ugm-3,5.20276,R,ugm-3,6.353,R,ugm-3 (Ref.eq)
07-01-2020,24:00,19.435,R,ugm-3 (FIDAS),0.53412,R,ugm-3,3.46357,R,ugm-3,4.28255,R,ugm-3,10.549,R,ugm-3 (Ref.eq)
08-01-2020,01:00,17.220,R,ugm-3 (FIDAS),0.46523,R,ugm-3,2.07538,R,ugm-3,2.78873,R,ugm-3,9.648,R,ugm-3 (Ref.eq)
08-01-2020,02:00,14.753,R,ugm-3 (FIDAS),,,,,,,,,,8.240,R,ugm-3 (Ref.eq)
08-01-2020,03:00,14.624,R,ugm-3 (FIDAS),0.58154,R,ugm-3,1.37711,R,ugm-3,2.26880,R,ugm-3,7.670,R,ugm-3 (Ref.eq)
08-01-2020,04:00,11.221,R,ugm-3 (FIDAS),1.20961,R,ugm-3,2.04478,R,ugm-3,3.89949,R,ugm-3,6.088,R,ugm-3 (Ref.eq)
08-01-2020,05:00,12.504,R,ugm-3 (FIDAS),1.04678,R,ugm-3,2.71985,R,ugm-3,4.32489,R,ugm-3,6.448,R,ugm-3 (Ref.eq)
08-01-2020,06:00,12.820,R,ugm-3 (FIDAS),5.16411,R,ugm-3,8.17607,R,ugm-3,16.09426,R,ugm-3,6.329,R,ugm-3 (Ref.eq)
08-01-2020,07:00,14.540,R,ugm-3 (FIDAS),16.53909,R,ugm-3,14.73426,R,ugm-3,40.09384,R,ugm-3,7.687,R,ugm-3 (Ref.eq)
08-01-2020,08:00,16.195,R,ugm-3 (FIDAS),40.56846,R,ugm-3,43.01122,R,ugm-3,105.21532,R,ugm-3,8.306,R,ugm-3 (Ref.eq)
08-01-2020,09:00,17.123,R,ugm-3 (FIDAS),40.68477,R,ugm-3,44.28632,R,ugm-3,106.66877,R,ugm-3,7.929,R,ugm-3 (Ref.eq)
08-01-2020,10:00,12.318,R,ugm-3 (FIDAS),32.89209,R,ugm-3,28.61946,R,ugm-3,79.05329,R,ugm-3,6.167,R,ugm-3 (Ref.eq)
08-01-2020,11:00,12.488,R,ugm-3 (FIDAS),32.63621,R,ugm-3,28.90545,R,ugm-3,78.94694,R,ugm-3,5.905,R,ugm-3 (Ref.eq)
08-01-2020,12:00,11.413,R,ugm-3 (FIDAS),33.96213,R,ugm-3,22.72476,R,ugm-3,74.79930,R,ugm-3,5.771,R,ugm-3 (Ref.eq)
08-01-2020,13:00,10.142,R,ugm-3 (FIDAS),26.84404,R,ugm-3,20.80615,R,ugm-3,61.96644,R,ugm-3,5.221,R,ugm-3 (Ref.eq)
08-01-2020,14:00,,,,,,,,,,,,,,,
08-01-2020,15:00,6.909,R,ugm-3 (FIDAS),29.71299,R,ugm-3,22.83541,R,ugm-3,68.39469,R,ugm-3,3.821,R,ugm-3 (Ref.eq)
08-01-2020,16:00,8.157,R,ugm-3 (FIDAS),31.98488,R,ugm-3,33.69728,R,ugm-3,82.74008,R,ugm-3,4.070,R,ugm-3 (Ref.eq)
08-01-2020,17:00,6.712,R,ugm-3 (FIDAS),30.33330,R,ugm-3,26.30370,R,ugm-3,72.81411,R,ugm-3,3.521,R,ugm-3 (Ref.eq)
08-01-2020,18:00,6.742,R,ugm-3 (FIDAS),26.82078,R,ugm-3,22.72066,R,ugm-3,63.84528,R,ugm-3,3.576,R,ugm-3 (Ref.eq)
08-01-2020,19:00,6.347,R,ugm-3 (FIDAS),20.28423,R,ugm-3,22.88815,R,ugm-3,53.99021,R,ugm-3,3.046,R,ugm-3 (Ref.eq)
08-01-2020,20:00,6.292,R,ugm-3 (FIDAS),31.58943,R,ugm-3,37.06872,R,ugm-3,85.50518,R,ugm-3,3.270,R,ugm-3 (Ref.eq)
08-01-2020,21:00,5.944,R,ugm-3 (FIDAS),11.93327,R,ugm-3,20.20118,R,ugm-3,38.49860,R,ugm-3,3.242,R,ugm-3 (Ref.eq)
08-01-2020,22:00,7.296,R,ugm-3 (FIDAS),9.65362,R,ugm-3,18.59180,R,ugm-3,33.39381,R,ugm-3,3.323,R,ugm-3 (Ref.eq)
08-01-2020,23:00,7.917,R,ugm-3 (FIDAS),5.32694,R,ugm-3,21.32647,R,ugm-3,29.49432,R,ugm-3,4.013,R,ugm-3 (Ref.eq)
08-01-2020,24:00,9.706,R,ugm-3 (FIDAS),3.53578,R,ugm-3,13.57969,R,ugm-3,19.00115,R,ugm-3,5.530,R,ugm-3 (Ref.eq)
09-01-2020,01:00,11.303,R,ugm-3 (FIDAS),6.32719,R,ugm-3,25.37022,R,ugm-3,35.07177,R,ugm-3,6.886,R,ugm-3 (Ref.eq)
09-01-2020,02:00,12.450,R,ugm-3 (FIDAS),9.97928,R,ugm-3,18.48241,R,ugm-3,33.78376,R,ugm-3,8.174,R,ugm-3 (Ref.eq)
09-01-2020,03:00,11.828,R,ugm-3 (FIDAS),4.41973,R,ugm-3,17.15186,R,ugm-3,23.92869,R,ugm-3,7.462,R,ugm-3 (Ref.eq)
09-01-2020,04:00,11.825,R,ugm-3 (FIDAS),3.41947,R,ugm-3,13.86438,R,ugm-3,19.10750,R,ugm-3,6.993,R,ugm-3 (Ref.eq)
09-01-2020,05:00,13.700,R,ugm-3 (FIDAS),2.46574,R,ugm-3,15.22040,R,ugm-3,19.00115,R,ugm-3,9.268,R,ugm-3 (Ref.eq)
09-01-2020,06:00,11.875,R,ugm-3 (FIDAS),11.49130,R,ugm-3,19.63811,R,ugm-3,37.25785,R,ugm-3,8.286,R,ugm-3 (Ref.eq)
09-01-2020,07:00,11.198,R,ugm-3 (FIDAS),25.70422,R,ugm-3,33.36608,R,ugm-3,72.77866,R,ugm-3,6.743,R,ugm-3 (Ref.eq)
09-01-2020,08:00,10.146,R,ugm-3 (FIDAS),49.19857,R,ugm-3,43.78129,R,ugm-3,119.21803,R,ugm-3,6.149,R,ugm-3 (Ref.eq)
09-01-2020,09:00,11.262,R,ugm-3 (FIDAS),87.83630,R,ugm-3,63.41362,R,ugm-3,198.09408,R,ugm-3,6.771,R,ugm-3 (Ref.eq)
09-01-2020,10:00,28.898,R,ugm-3 (FIDAS),114.09880,R,ugm-3,72.91669,R,ugm-3,247.86574,R,ugm-3,10.236,R,ugm-3 (Ref.eq)
09-01-2020,11:00,18.513,R,ugm-3 (FIDAS),50.85015,R,ugm-3,53.97541,R,ugm-3,131.94455,R,ugm-3,6.555,R,ugm-3 (Ref.eq)
09-01-2020,12:00,17.403,R,ugm-3 (FIDAS),77.97333,R,ugm-3,60.81169,R,ugm-3,180.36912,R,ugm-3,5.738,R,ugm-3 (Ref.eq)
09-01-2020,13:00,12.633,R,ugm-3 (FIDAS),59.75939,R,ugm-3,58.53601,R,ugm-3,150.16580,R,ugm-3,4.673,R,ugm-3 (Ref.eq)
09-01-2020,14:00,8.492,R,ugm-3 (FIDAS),48.29136,R,ugm-3,52.12050,R,ugm-3,126.16622,R,ugm-3,4.165,R,ugm-3 (Ref.eq)
09-01-2020,15:00,9.795,R,ugm-3 (FIDAS),90.27878,R,ugm-3,78.88238,R,ugm-3,217.30793,R,ugm-3,6.362,R,ugm-3 (Ref.eq)
09-01-2020,16:00,8.270,R,ugm-3 (FIDAS),85.34730,R,ugm-3,72.83113,R,ugm-3,203.69516,R,ugm-3,4.397,R,ugm-3 (Ref.eq)
09-01-2020,17:00,6.875,R,ugm-3 (FIDAS),96.09422,R,ugm-3,83.96823,R,ugm-3,231.31064,R,ugm-3,4.143,R,ugm-3 (Ref.eq)
09-01-2020,18:00,6.862,R,ugm-3 (FIDAS),110.42345,R,ugm-3,83.08974,R,ugm-3,252.40333,R,ugm-3,4.144,R,ugm-3 (Ref.eq)